Redmond, OR

12:39 AM PDT on July 26, 2016 (GMT -0700)
Roberts Field Airport

Weather History for KRDM - March, 2014

Change the Weather History Date:

Sunday, March 2, 2014

  Actual Average Record
Temperature  
Mean Temperature 39 °F 37 °F  
Max Temperature 50 °F 50 °F 65 °F (1986)
Min Temperature 28 °F 24 °F 9 °F (2002)
Degree Days  
Heating Degree Days 26 28  
Month to date heating degree days 59 56  
Since 1 July heating degree days 4852 4729  
Cooling Degree Days 0 0  
Month to date cooling degree days 0 0  
Year to date cooling degree days 0 0  
Moisture  
Dew Point 31 °F    
Average Humidity 79    
Maximum Humidity 100    
Minimum Humidity 58    
Precipitation  
Precipitation T in 0.02 in 0.29 in (1972)
Month to date precipitation 0.14 0.04  
Year to date precipitation 2.05 1.66  
Sea Level Pressure  
Sea Level Pressure 29.78 in    
Wind  
Wind Speed 6 mph (WSW)    
Max Wind Speed 22 mph    
Max Gust Speed 28 mph    
Visibility 4 miles    
Events Fog , Rain    
T = Trace of Precipitation, MM = Missing Value Source: NWS Daily Summary

Daily Weather History Graph

Daily Weather History Graph

Search for Another Location

Airport or City:

Trip Planner

Search our weather history database for the weather conditions in past years. The results will help you decide how hot, cold, wet, or windy it might be!

Date:

Astronomy

Mar. 02, 2014 Rise Set
Actual Time 6:39 AM PST 5:54 PM PST
Civil Twilight 6:10 AM PST 6:23 PM PST
Nautical Twilight 5:37 AM PST 6:56 PM PST
Astronomical Twilight 5:03 AM PST 7:30 PM PST
Moon 7:09 AM PST (3/2) 8:02 PM PST (3/2)
Length of Visible Light 12h 12m
Length of Day
11h 14m
Waxing Crescent, 3% of the Moon is Illuminated
Mar 2
Waxing Crescent
Mar 8
First Quarter
Mar 16
Full
Mar 23
Last Quarter
Mar 30
New

Hourly Weather History & Observations

Time (PST) Temp. Windchill Dew Point Humidity Pressure Visibility Wind Dir Wind Speed Gust Speed Precip Events Conditions
12:56 AM 28.0 °F 24.2 °F 26.1 °F 92% 29.84 in 9.0 mi NW 3.5 mph - N/A   Overcast
1:52 AM 28.4 °F 24.6 °F 26.6 °F 93% 29.76 in 1.8 mi ESE 3.5 mph - N/A   Overcast
1:56 AM 28.9 °F 25.2 °F 27.0 °F 92% 29.83 in 1.2 mi ESE 3.5 mph - N/A   Overcast
2:15 AM 28.9 °F - 28.0 °F 96% 29.77 in 0.8 mi Calm Calm - N/A   Mist
2:33 AM 28.9 °F 25.2 °F 28.0 °F 96% 29.76 in 0.2 mi SSE 3.5 mph - N/A Fog Light Freezing Fog
2:43 AM 28.9 °F - 28.0 °F 96% 29.76 in 0.5 mi Calm Calm - N/A Fog Light Freezing Fog
2:56 AM 28.9 °F - 28.0 °F 96% 29.81 in 0.5 mi Calm Calm - N/A Fog Light Freezing Fog
3:56 AM 30.0 °F - 28.0 °F 92% 29.81 in 0.8 mi Calm Calm - N/A   Overcast
4:06 AM 30.0 °F - 28.0 °F 92% 29.76 in 1.2 mi Calm Calm - N/A   Overcast
4:17 AM 30.0 °F 26.5 °F 28.0 °F 92% 29.75 in 0.5 mi ENE 3.5 mph - N/A Fog Light Freezing Fog
4:46 AM 30.0 °F - 28.9 °F 96% 29.76 in 0.2 mi Calm Calm - N/A Fog Light Freezing Fog
4:56 AM 30.0 °F - 28.9 °F 96% 29.81 in 0.2 mi Calm Calm - N/A Fog Light Freezing Fog
5:31 AM 30.0 °F 26.5 °F 28.9 °F 96% 29.76 in 0.5 mi NNW 3.5 mph - 0.00 in Fog Light Freezing Fog
5:38 AM 30.0 °F - 28.9 °F 96% 29.76 in 0.2 mi Calm Calm - 0.00 in Fog Light Freezing Fog
5:49 AM 30.0 °F 26.5 °F 28.9 °F 96% 29.75 in 0.2 mi North 3.5 mph - 0.00 in Fog Light Freezing Fog
5:56 AM 30.0 °F - 28.9 °F 96% 29.81 in 0.2 mi Calm Calm - 0.00 in Fog Light Freezing Fog
6:32 AM 30.0 °F - 28.9 °F 96% 29.75 in 0.2 mi Calm Calm - N/A Fog Light Freezing Fog
6:43 AM 30.0 °F - 28.9 °F 96% 29.74 in 0.2 mi Calm Calm - N/A Fog Light Freezing Fog
6:56 AM 30.0 °F 25.2 °F 28.9 °F 96% 29.80 in 0.2 mi North 4.6 mph - N/A   Overcast
7:03 AM 30.0 °F - 28.0 °F 92% 29.74 in 0.5 mi Calm Calm - N/A Fog Light Freezing Fog
7:47 AM 30.9 °F - 30.0 °F 96% 29.74 in 3.0 mi Calm Calm - 0.00 in   Overcast
7:54 AM 30.2 °F - 30.2 °F 100% 29.74 in 2.0 mi Calm Calm - 0.00 in   Overcast
7:56 AM 30.9 °F - 30.0 °F 96% 29.79 in 2.0 mi Calm Calm - 0.00 in   Overcast
8:10 AM 30.9 °F - 30.0 °F 96% 29.74 in 2.0 mi Calm Calm - 0.00 in Rain Light Freezing Rain
8:17 AM 30.9 °F - 30.0 °F 96% 29.73 in 2.0 mi Calm Calm - 0.00 in   Overcast
8:56 AM 32.0 °F 27.5 °F 30.0 °F 92% 29.79 in 2.0 mi NW 4.6 mph - 0.00 in   Overcast
9:46 AM 32.0 °F - 30.0 °F 92% 29.74 in 2.0 mi Calm Calm - 0.00 in   Overcast
9:56 AM 32.0 °F - 30.0 °F 92% 29.80 in 2.0 mi Calm Calm - 0.00 in   Overcast
10:15 AM 32.0 °F - 30.9 °F 96% 29.74 in 5.0 mi Calm Calm - N/A   Overcast
10:56 AM 37.9 °F 35.5 °F 36.0 °F 93% 29.77 in 8.0 mi ESE 3.5 mph - 0.00 in   Mostly Cloudy
11:56 AM 46.0 °F - 42.1 °F 86% 29.74 in 10.0 mi Calm Calm - N/A   Mostly Cloudy
12:56 PM 48.9 °F - 41.0 °F 74% 29.72 in 10.0 mi SSW 17.3 mph 27.6 mph 0.00 in   Overcast
1:56 PM 48.9 °F - 39.9 °F 71% 29.72 in 10.0 mi SW 10.4 mph 21.9 mph 0.00 in Rain Light Rain
2:56 PM 46.0 °F 44.8 °F 41.0 °F 83% 29.74 in 10.0 mi WNW 3.5 mph - 0.00 in   Mostly Cloudy
3:56 PM 42.1 °F 37.7 °F 39.0 °F 89% 29.76 in 10.0 mi NW 6.9 mph - 0.00 in Rain Light Rain
4:56 PM 46.0 °F 44.8 °F 39.9 °F 79% 29.76 in 10.0 mi East 3.5 mph - 0.00 in   Mostly Cloudy
5:56 PM 46.9 °F - 39.9 °F 77% 29.78 in 10.0 mi West 4.6 mph - 0.00 in Rain Light Rain
6:56 PM 46.0 °F 39.9 °F 36.0 °F 68% 29.81 in 10.0 mi SW 13.8 mph - 0.00 in   Scattered Clouds
7:56 PM 44.1 °F 39.5 °F 35.1 °F 71% 29.84 in 10.0 mi WSW 8.1 mph - N/A   Clear
8:56 PM 42.1 °F 37.1 °F 35.1 °F 76% 29.86 in 10.0 mi WSW 8.1 mph - N/A   Partly Cloudy
9:56 PM 43.0 °F 37.2 °F 32.0 °F 65% 29.88 in 10.0 mi SSW 10.4 mph - N/A   Clear
10:56 PM 44.1 °F 37.4 °F 30.0 °F 58% 29.87 in 10.0 mi SW 13.8 mph - N/A   Clear
11:56 PM 46.0 °F 39.0 °F 30.9 °F 56% 29.85 in 10.0 mi SSW 17.3 mph 25.3 mph N/A   Clear